Regional Weather Roundup
Issued by NWS Albany, NY

Current Version | Previous Version | Text Only | Print | Product List | Glossary On
Versions: 1 2 3 4 5 6 7 8 9 10 11 12 13 14 15 16 17 18 19 20 21 22 23 24 25 26 27 28 29 30 31 32 33 34 35 36 37 38 39 40 41 42 43 44 45 46 47 48 49 50
000 ASUS41 KALY 231510 RWRALY NEW YORK STATE HOURLY WEATHER ROUNDUP NATIONAL WEATHER SERVICE ALBANY NY 1100 AM EDT FRI APR 23 2021 NOTE: "FAIR" INDICATES FEW OR NO CLOUDS BELOW 12,000 FEET WITH NO SIGNIFICANT WEATHER AND/OR NO OBSTRUCTIONS TO VISIBILITY. NYZ032-033-038>043-046>054-057>066-NYZ062>081-082-084-231600- EAST CITY SKY/WX TMP DP RH WIND PRES REMARKS ALBANY MOSUNNY 46 24 42 W18G30 29.91F GLENS FALLS NOT AVBL POUGHKEEPSIE SUNNY 48 23 37 SW13G21 29.96F NEWBURGH SUNNY 48 25 40 NW12G25 29.97F MONTGOMERY SUNNY 49 23 36 NW13G23 29.96F WHITE PLAINS MOSUNNY 48 21 34 NW14G25 29.97F ISLIP SUNNY 50 21 32 W17G24 29.99F NEW YORK CITY MOSUNNY 51 19 28 W10G23 30.01F CENTRAL PARK SUNNY 51 20 29 NW9G18 30.04F $$ NYZ005>009-017-018-044>046-055-056-231600- CENTRAL CITY SKY/WX TMP DP RH WIND PRES REMARKS FULTON SUNNY 49 28 44 W16 29.96F SYRACUSE MOSUNNY 51 24 34 W17G26 29.96F ROME SUNNY 49 26 41 W21G31 29.94F ELMIRA SUNNY 51 23 33 W16G23 29.99F BINGHAMTON MOSUNNY 44 23 43 NW14G23 29.95S MONTICELLO SUNNY 46 19 34 W20G28 29.95F $$ NYZ026>034-041>043-087-231600- NORTH CITY SKY/WX TMP DP RH WIND PRES REMARKS WATERTOWN SUNNY 46 31 55 W15G28 29.92S FORT DRUM NOT AVBL OGDENSBURG PTSUNNY 50 27 40 SW13G21 29.83F MASSENA PTSUNNY 47 24 40 W20 29.84S PLATTSBURGH SUNNY 50 22 33 NW13G28 29.77S $$ NYZ001>004-010>016-019>021-085-231600- WEST CITY SKY/WX TMP DP RH WIND PRES REMARKS NIAGARA FALLS SUNNY 49 26 41 SW14 29.99F BUFFALO MOSUNNY 46 33 60 SW17 30.01S DUNKIRK SUNNY 50 26 39 W14G21 30.04S JAMESTOWN SUNNY 45 26 47 SW8G21 30.03S WELLSVILLE SUNNY 42 24 49 W9 30.01R ROCHESTER MOSUNNY 49 25 39 W12G24 29.99F PENN YAN SUNNY 48 21 34 W15G23 29.99S $$ KEY WCI = WIND CHILL INDEX VSB = VISIBILITY HX = HEAT INDEX $$

USA.gov is the U.S. government's official web portal to all federal, state and local government web resources and services.